Location: Wayah Bald
(35.1806°N, 83.5603°W)
Time: 00:16:57
(UTC-04:00)

Meteor 1-27 Rocket - Visible Passes

Search period start: 25 April 2015 00:00
Search period end: 05 May 2015 00:00
Orbit: 830 x 910 km, 81.3° (Epoch: 24 April)

Date Brightness Start Highest point End Pass type
(mag) Time Alt. Az. Time Alt. Az. Time Alt. Az.
25 Apr 5.2 21:34:12 16° E 21:34:12 16° E 21:37:12 10° NE visible
25 Apr 4.3 23:16:34 50° W 23:16:39 50° WNW 23:22:03 10° N visible
26 Apr 5.1 21:27:18 17° E 21:27:34 17° E 21:31:10 10° NE visible
26 Apr 4.4 23:09:40 44° WSW 23:10:31 48° WNW 23:15:53 10° N visible
27 Apr 5.1 21:20:19 17° ESE 21:21:24 18° E 21:25:07 10° NE visible
27 Apr 4.5 23:02:40 36° WSW 23:04:23 46° WNW 23:09:44 10° N visible
28 Apr 5.0 21:13:12 15° ESE 21:15:14 19° E 21:19:04 10° NE visible
28 Apr 4.6 22:55:33 26° SW 22:58:15 45° WNW 23:03:34 10° N visible
29 Apr 5.0 21:05:56 12° SE 21:09:05 19° E 21:13:01 10° NE visible
29 Apr 4.7 22:48:16 18° SW 22:52:07 43° WNW 22:57:25 10° N visible
30 Apr 5.0 20:59:08 10° SE 21:02:56 20° E 21:06:58 10° NE visible
30 Apr 4.8 22:40:46 10° SSW 22:45:59 42° WNW 22:51:15 10° N visible
01 May 4.9 20:52:53 10° SE 20:56:46 21° E 21:00:55 10° NE visible
01 May 4.9 22:34:40 10° SSW 22:39:51 40° WNW 22:45:06 10° N visible
02 May 4.9 20:46:38 10° SE 20:50:37 22° E 20:54:51 10° NE visible
02 May 5.0 22:28:34 10° SW 22:33:43 39° WNW 22:38:56 10° N visible
03 May 4.8 20:40:23 10° SE 20:44:28 22° E 20:48:47 10° NE visible
03 May 5.1 22:22:28 10° SW 22:27:35 38° WNW 22:32:46 10° N visible
04 May 5.2 22:16:22 10° SW 22:21:28 36° WNW 22:26:37 10° N visible
